Погода Ловозеро

Погода Ловозеро : погода сейчас, прогноз погоды и архив. Всё, что Вы хотите узнать о погоде Ловозеро!

Поиск расширенной информации на нашем сайте:

Другие новости

Новости СМИ2

Главная страница сайта

Новости сайта

03.07.2017

Напоминаем, что на нашем специализированном сайте Метеоцентр.Азия вы можете получить высокодетализированные автоматические прогнозы погоды по пунктам России, СНГ и мира в авиационном формате (включающие направление и скорость ветра, видимость, явления погоды, количество и форму облачности, нижнюю и верхнюю границу облачности).


Погода Ловозеро - сегодня

Время (UTC), дата Ветер
(°,м/с) 
Видим.   Явления Облачность Т
(°С)
Тd
(°С)
f(%) Тe
(°С)
Pmin
(гПа)
dP
(гПа)
Po
(мм)
O2
(г/м3)
Тmin Tmax R s Состояние
почвы
06 15.10.17 060 (СВ) 2-3  4000 м  дымка{ливн. осадки}  10/10 300 м кучево-дожд. 
[Cb cap]
+1.8 +1.8 100 +1  1009.7  -0.2  742  297  +1.5    0.0     
09 15.10.17 070 (В) 2-3  10 км  слаб. ливневой дождь  10/10 300 м кучево-дожд. 
[Cb cap]
+2.8 +2.2 96 +2  1010.1  0.5  743  296           
12 15.10.17 030 (СВ) 1-1  4000 м  слаб. ливневой дождь  10/10 300 м кучево-дожд. 
[Cb cap]
+2.8 +2.8 100 +4  1010.6  0.5  743  296           
15 15.10.17 360 (С) 1-2  4000 м  дымка{ливн. осадки}  10/10 300 м кучево-дожд. 
[Cb cap]
+2.5 +2.5 100 +3  1011.3  0.6  743  296      0.7     
18 15.10.17 020 (С) 1-1  4000 м  дымка{ливн. осадки}  10/10 300 м кучево-дожд. 
[Cb cap]
+2.1 +2.1 100 +3  1011.2  0.1  743  297    +3.2  0.7     
21 15.10.17 тихо ()   4000 м  дымка  10/10 300 м кучево-дожд. 
[Cb cap]
+2.2 +2.2 100 +2  1011.3  0.1  743  297           
00 16.10.17 тихо ()   4000 м  дымка  10/10 300 м кучево-дожд. 
[Cb cap]
+2.1 +2.1 100 +2  1010.8  -0.5  743  297           
03 16.10.17 150 (ЮВ) 1-2  4000 м  дымка  10/10 300 м кучево-дожд. 
[Cb cap]
+2.1 +2.1 100 +3  1009.4  -1.3  742  296  +1.8         
06 16.10.17 150 (ЮВ) 3-5  4000 м  дымка  10/10 300 м кучево-дожд. 
[Cb cap]
+2.7 +2.7 100 +1  1007.4  -1.9  741  295  +1.8         
09 16.10.17 160 (Ю) 4-7  4000 м  слаб. ливневой дождь  10/10 300 м кучево-дожд. 
[Cb cap]
+3.2 +3.2 100 +1  1004.7  -2.6  739  294           
12 16.10.17 140 (ЮВ) 4-7  4000 м  слаб. ливневой дождь  10/10 300 м кучево-дожд. 
[Cb cap]
+3 +3 100 +1  1001.3  -3.3  736  293           
18 16.10.17 120 (ЮВ) 4-9{10}  4000 м  ливневой дождь  10/10 200 м кучево-дожд. 
[Cb cap]
+1.5 +1.5 100 -1  991.9  -5.1  729  292    +3.5     
00 17.10.17 080 (В) 4-6  4000 м  слаб. ливневой снег [диам. отлож. мокр. снега 0 мм]  10/10 300 м кучево-дожд. 
[Cb cap]
+0.9 +0.9 100 -1  986.7  -1.3  725  291           
03 17.10.17 040 (СВ) 3-5  4000 м  слаб. ливневой дождь  10/10 300 м кучево-дожд. 
[Cb cap]
+1.1 +1.1 100 988  1.3  726  291  +0.1    10     
06 17.10.17 340 (С) 3-4  4000 м  слаб. ливневой дождь  10/10 300 м кучево-дожд. 
[Cb cap]
+1.5 +1.5 100 989.8  1.8  728  291  +0.1    равномерный
мокрый или
старый снег
100% 
12 17.10.17 330 (СЗ) 2-5  4000 м  в посл. час ливневой дождь  8/5 300 м кучево-дожд., средняя, верхняя 
[Cb cap|Ac trans|Ci fib]
+3.3 +3.3 100 +3  993.4  1.5  730  290           
15 17.10.17 290 (З) 1-3  4000 м  дымка{ливн. осадки}  10/10 300 м кучево-дожд. 
[Cb cap]
+3.2 +3.2 100 +4  994  0.6  731  291      0.6     
18 17.10.17 330 (СЗ) 3-5  4000 м  слаб. ливневой дождь  10/10 300 м кучево-дожд. 
[Cb cap]
+2.9 +2.9 100 +2  993.7  -0.3  731  291    +3.4  0.9     
21 17.10.17 280 (З) 2-3  4000 м  слаб. ливневой дождь  10/10 200 м кучево-дожд. 
[Cb cap]
+2.8 +2.8 100 +2  993.6  0.1  731  291           
00 18.10.17 330 (СЗ) 1-2  4000 м  слаб. ливневой дождь  10/10 200 м кучево-дожд. 
[Cb cap]
+3 +3 100 +4  993.8  0.2  731  291           
03 18.10.17 360 (С) 2-3  4000 м  слаб. ливневой дождь  10/10 300 м кучево-дожд. 
[Cb cap]
+3.1 +3.1 100 +3  993.7  0.2  731  291  +2.7       
06 18.10.17 350 (С) 1-2  4000 м  в посл. час ливневой дождь  10/8 300 м кучево-дожд., средняя 
[Cb cap|Ac As]
+2.8 +2.8 100 +4  994.3  0.5  731  291  +2.7       
09 18.10.17 020 (С) 3-5  4000 м  в посл. час ливневой дождь  10/10 300 м кучево-дожд. 
[Cb cap]
+3.2 +3.2 100 +2  995  0.8  732  291           
12 18.10.17 030 (СВ) 4-6  4000 м  в посл. час ливневой дождь  10/10 300 м кучево-дожд. 
[Cb cap]
+2.7 +2.7 100 +1  996.8  1.6  733  292           
15 18.10.17 010 (С) 3-6  4000 м  слаб. ливневой дождь  10/10 300 м кучево-дожд. 
[Cb cap]
+1.1 +1.1 100 998.8  1.9  734  294         
Время (UTC), дата Ветер
(°,м/с) 
Видим.   Явления Облачность Т
(°С)
Тd
(°С)
f(%) Тe
(°С)
Pmin
(гПа)
dP
(гПа)
Po
(мм)
O2
(г/м3)
Тmin Tmax R s Состояние
почвы

Для получения пояснительной информации подведите курсор к названию столбца.

ПОГОДА Ловозеро - архив

Всё, что Вы хотите узнать о погоде Ловозеро - удобно и подробно!

Выберите нужную дату (начиная с 1 января 2015* года) и нажмите кнопку "Найти".
Будут отображены архивные сводки погоды по пункту Ловозеро, начиная с указанной даты.


Отображать данные в формате CSV (для использования в таблицах Excel)


Внимание! Наш архив погоды предназначен исключительно для личного некоммерческого использования в познавательных целях. Если Вам необходимы официальные справки о состоянии погоды (для производственных, юридических, коммерческих и т.п. целей), обращайтесь в органы Росгидромета.

*Примечание: данная дата относится к архиву по метеостанциям СССР (Россия, СНГ, Балтия).
Архив по метеостанциям Зарубежной Европы и Азии (кроме Китая) хранится 10 дней, по другим регионам земного шара (Китай, Африка, Америка, Австралия, Океания) - 1 день.

Ловозеро - район местоположения метеостанции


Название, широта, долгота, высота метеостанции:
Ловозеро 68°ш. 35°д. 162 м над ур. моря [Российская Федерация]

Дополнительная информация

В oтличие oт бoльшинства пoгoдных сайтoв мы публикуем пoдрoбную метеoинфoрмацию в детальнoм прoфессиoнальнoм фoрмате.

Характеристики температуры и влажнoсти вoздуха измеряются на высoте 2 м в тени вдали oт зданий и деревьев.
Скoрoсть ветра измеряется на высoте 10 м (на урoвне рoста челoвека скoрoсть ветра ниже в 1.5-2 раза). Если метеoстанция нахoдится в гoрoде или в лесу, тo скoрoсть ветра занижена на 2-4 м/с пo сравнению с oткрытым местoм. Скoрoсть ветра над акватoриями крупных рек и oзёр, а также на вершинах хoлмoв на 2-5 м/с выше, чем в oбычных услoвиях.
Атмoсфернoе давление в разных тoчках местнoсти мoжет значительнo oтличаться oт давления на метеoстанции, в зависимoсти oт услoвий рельефа (при пoдъёме на 10 м давление пoнижается примернo на 1 мм рт.ст.).